[[{"header":{"parameterUnit":"m.s-1","parameterCategory":1,"la1":30.2992,"la2":30.254,"lo1":-89.0895,"lo2":-89.0443,"dy":0.0025,"dx":0.0025,"nx":19,"ny":19,"refTime":"2026-05-21T03:00:00:Z","depth":0,"parameterNumber":2,"parameterNumberName":"U-component_of_WINDS"},"data":[0,0,0,-2.2813,-2.2816,-2.2984,-2.2985,-2.3182,-2.3183,0,0,0,0,0,0,0,0,0,0,0,-2.275,-2.2751,-2.2812,-2.2816,-2.2984,-2.2985,-2.3182,-2.3183,0,0,0,0,0,0,0,0,0,0,0,-2.275,-2.2751,-2.2752,-2.2817,-2.2984,-2.2985,-2.3181,-2.3061,0,0,0,0,0,0,0,0,0,0,-2.2901,-2.2831,-2.275,-2.2752,-2.2818,-2.2984,-2.2985,-2.3056,-2.3069,-2.3097,0,-2.3118,0,-2.3154,-2.3195,-2.3196,0,0,0,-2.2826,-2.282,-2.2876,-2.2752,-2.2819,-2.2983,-2.2911,-2.3063,-2.3078,-2.3114,-2.3121,-2.3129,-2.3157,-2.3196,-2.3197,-2.3327,-2.3327,0,0,-2.2817,-2.2774,-2.2866,-2.2885,-2.2856,-2.2906,-2.2916,-2.3072,-2.3077,-2.3122,-2.3134,-2.316,-2.3198,-2.3199,-2.3326,-2.3327,0,0,0,-2.2783,-2.2767,-2.282,-2.2877,-2.2908,-2.291,-2.2922,-2.3071,-2.3091,-2.3136,-2.3162,-2.3199,-2.3201,-2.3326,-2.3327,-2.3291,0,0,0,-2.2778,-2.2748,-2.2816,-2.2791,-2.2905,-2.2991,-2.2916,-2.308,-2.31,-2.3161,-2.3199,-2.3203,-2.3326,-2.3326,-2.3291,-2.3281,0,0,0,-2.2744,-2.2744,-2.2763,-2.2788,-2.2859,-2.2989,-2.302,-2.3086,-2.3115,-2.3196,-2.3203,-2.3326,-2.3326,-2.3292,-2.3282,-2.3302,0,0,0,-2.2694,-2.273,-2.2762,-2.2813,-2.2857,-2.2966,-2.3019,-2.3103,-2.3168,-2.32,-2.3326,-2.3327,-2.3292,-2.3283,-2.3302,-2.3311,-2.331,0,0,-2.2716,-2.2731,-2.2764,-2.2798,-2.2889,-2.2943,-2.3031,-2.3132,-2.318,-2.3275,-2.3279,-2.3291,-2.3282,-2.3302,-2.3322,-2.3321,0,0,0,-2.2757,-2.278,-2.2813,-2.2873,-2.295,-2.3016,-2.3108,-2.3146,-2.3228,-2.3219,-2.3306,-2.3302,-2.3315,-2.3321,-2.332,-2.3335,-2.3327,-2.3327,-2.3327,-2.2725,-2.2783,-2.2842,-2.2921,-2.2978,-2.3072,-2.3124,-2.3192,-2.3235,-2.3254,-2.3283,-2.3287,-2.3293,-2.3292,-2.3307,-2.3292,-2.3292,-2.3292,-2.3292,-2.2762,-2.2803,-2.2859,-2.2936,-2.2998,-2.3064,-2.3157,-2.3185,-2.3257,-2.3271,-2.3286,-2.3295,-2.3289,-2.3305,-2.329,-2.329,-2.329,-2.3291,-2.3291,-2.2747,-2.2777,-2.2822,-2.2913,-2.2978,-2.3058,-2.3123,-2.3178,-2.323,-2.3245,-2.3281,-2.3282,-2.3289,-2.3258,-2.3258,-2.3258,-2.3258,-2.3258,-2.3258,-2.2714,-2.2765,-2.2813,-2.2898,-2.2943,-2.301,-2.3106,-2.3153,-2.3219,-2.3254,-2.3255,-2.3296,-2.3278,-2.3272,-2.3259,-2.3259,-2.3259,-2.3259,-2.3259,-2.2728,-2.2734,-2.2807,-2.2852,-2.2957,-2.3017,-2.3087,-2.3177,-2.3225,-2.3255,-2.3294,-2.3272,-2.3292,-2.3293,-2.3289,-2.3281,-2.3281,-2.3281,-2.3281,-2.2716,-2.2731,-2.2818,-2.2887,-2.2961,-2.3031,-2.3113,-2.3189,-2.3268,-2.3301,-2.3311,-2.3309,-2.3308,-2.3329,-2.333,-2.3326,-2.3328,-2.3328,-2.3328,-2.2728,-2.2753,-2.2811,-2.2887,-2.2973,-2.3046,-2.3125,-2.3204,-2.3295,-2.3331,-2.3328,-2.3326,-2.3325,-2.3322,-2.3356,-2.3355,-2.335,0,0]},{"header":{"parameterUnit":"m.s-1","parameterCategory":1,"la1":30.2992,"la2":30.254,"lo1":-89.0895,"lo2":-89.0443,"dy":0.0025,"dx":0.0025,"nx":19,"ny":19,"refTime":"2026-05-21T03:00:00:Z","depth":0,"parameterNumber":3,"parameterNumberName":"V-component_of_WINDS"},"data":[0,0,0,6.2533,6.2537,6.2716,6.2717,6.2939,6.2941,0,0,0,0,0,0,0,0,0,0,0,6.2477,6.2479,6.2533,6.2537,6.2716,6.2717,6.2938,6.2941,0,0,0,0,0,0,0,0,0,0,0,6.2477,6.2478,6.248,6.2538,6.2716,6.2717,6.2938,6.2805,0,0,0,0,0,0,0,0,0,0,6.2632,6.2578,6.2478,6.248,6.2539,6.2716,6.2717,6.2799,6.2813,6.2855,0,6.2892,0,6.292,6.2955,6.2956,0,0,0,6.2539,6.2566,6.2617,6.248,6.2541,6.2716,6.2636,6.2807,6.2823,6.2874,6.2896,6.2904,6.2924,6.2957,6.2958,6.3195,6.3196,0,0,6.2529,6.2508,6.2606,6.2628,6.2601,6.263,6.2642,6.2817,6.2838,6.2897,6.2909,6.2927,6.2958,6.296,6.3194,6.3195,0,0,0,6.25,6.2501,6.2548,6.2618,6.2651,6.2635,6.2649,6.2831,6.2848,6.2912,6.293,6.2959,6.2962,6.3193,6.3194,6.3225,0,0,0,6.2494,6.2483,6.2543,6.2532,6.2648,6.2744,6.2658,6.2836,6.2856,6.2929,6.2959,6.2964,6.3192,6.3194,6.3222,6.3244,0,0,0,6.2467,6.248,6.2505,6.253,6.2607,6.2741,6.2769,6.2841,6.2867,6.2956,6.2965,6.3191,6.3193,6.3219,6.3239,6.3301,0,0,0,6.2431,6.2529,6.2505,6.2622,6.2605,6.2759,6.2768,6.2883,6.2963,6.296,6.3192,6.3194,6.3218,6.3236,6.3297,6.3349,6.3369,0,0,6.2543,6.2542,6.2613,6.2596,6.275,6.2733,6.2891,6.2983,6.301,6.3131,6.3137,6.3223,6.3239,6.33,6.3483,6.3498,0,0,0,6.2641,6.2691,6.2736,6.2812,6.2886,6.2951,6.3022,6.3056,6.316,6.3069,6.3262,6.3272,6.3309,6.3334,6.3348,6.3381,6.3205,6.3205,6.3204,6.2769,6.28,6.2918,6.297,6.3043,6.3115,6.3177,6.3235,6.3243,6.3288,6.3325,6.3433,6.3462,6.3472,6.3506,6.3354,6.3354,6.3354,6.3354,6.2937,6.3014,6.3023,6.3142,6.3172,6.3272,6.3344,6.3347,6.3443,6.3407,6.3441,6.3401,6.3488,6.3519,6.3357,6.3356,6.3356,6.3356,6.3355,6.3026,6.3068,6.3108,6.3221,6.3303,6.3351,6.3443,6.3468,6.3491,6.3524,6.3566,6.3565,6.3569,6.3542,6.3542,6.3543,6.3543,6.3543,6.3544,6.3102,6.3147,6.3223,6.3309,6.336,6.3431,6.3503,6.3554,6.3617,6.3627,6.3628,6.3632,6.349,6.3455,6.355,6.3548,6.3548,6.3547,6.3547,6.3264,6.3231,6.3348,6.34,6.3503,6.3583,6.3612,6.3714,6.3759,6.3803,6.38,6.3691,6.3692,6.3682,6.3653,6.3793,6.3793,6.3793,6.3793,6.334,6.3342,6.3468,6.3549,6.363,6.3668,6.3798,6.3855,6.3908,6.3937,6.392,6.3883,6.3871,6.3879,6.3865,6.3838,6.4022,6.4022,6.4023,6.3441,6.3453,6.356,6.3613,6.3694,6.3763,6.3886,6.3978,6.4031,6.4032,6.3961,6.3952,6.3892,6.3871,6.3873,6.385,6.3802,0,0]}]]